ProjectID,Date,Electric Generation,Electric Utility Import,Facility Electric Load
,YYYY-MM-DD,kW,kW,kW
517,2017-09-01,0.0,,0.0
517,2017-09-02,0.0,,0.0
517,2017-09-03,0.0,,0.0
517,2017-09-04,0.0,,0.0
517,2017-09-05,0.0,,0.0
517,2017-09-06,0.0,,0.0
517,2017-09-07,0.0,,0.0
517,2017-09-08,0.0,,0.0
517,2017-09-09,0.0,,0.0
517,2017-09-10,0.0,,0.0
517,2017-09-11,0.0,,0.0
517,2017-09-12,0.0,,0.0
517,2017-09-13,0.0,,0.0
517,2017-09-14,0.0,,0.0
517,2017-09-15,0.0,,0.0
517,2017-09-16,0.0,,0.0
517,2017-09-17,0.0,,0.0
517,2017-09-18,0.0,,0.0
517,2017-09-19,0.0,,0.0
517,2017-09-20,0.0,,0.0
517,2017-09-21,0.0,,0.0
517,2017-09-22,0.0,,0.0
517,2017-09-23,0.0,,0.0
517,2017-09-24,0.0,,0.0
517,2017-09-25,32.1775,,32.1775
517,2017-09-26,131.74833333333333,,131.74833333333333
517,2017-09-27,150.52375,,150.52375
517,2017-09-28,173.07916666666665,,173.07916666666665
517,2017-09-29,159.82708333333332,,159.82708333333332
517,2017-09-30,19.716666666666665,,19.716666666666665
517,2017-10-01,0.0,,0.0
517,2017-10-02,55.61708333333333,,55.61708333333333
517,2017-10-03,167.03875,,167.03875
517,2017-10-04,156.17416666666665,,156.17416666666665
517,2017-10-05,157.85166666666666,,157.85166666666666
517,2017-10-06,35.11625,,35.11625
517,2017-10-07,47.199999999999996,,47.199999999999996
517,2017-10-08,79.37125,,79.37125
517,2017-10-09,17.038333333333334,,17.038333333333334
517,2017-10-10,99.2,,99.2
517,2017-10-11,38.5425,,38.5425
517,2017-10-12,160.59666666666666,,160.59666666666666
517,2017-10-13,122.75208333333335,,122.75208333333335
517,2017-10-14,44.98833333333334,,44.98833333333334
517,2017-10-15,138.95208333333332,,138.95208333333332
517,2017-10-16,107.43374999999999,,107.43374999999999
517,2017-10-17,161.78125,,161.78125
517,2017-10-18,153.90041666666667,,153.90041666666667
517,2017-10-19,142.71416666666667,,142.71416666666667
517,2017-10-20,155.61666666666667,,155.61666666666667
517,2017-10-21,127.02625,,127.02625
517,2017-10-22,109.2,,109.2
517,2017-10-23,67.96958333333333,,67.96958333333333
517,2017-10-24,45.212916666666665,,45.212916666666665
517,2017-10-25,119.16125,,119.16125
517,2017-10-26,32.005833333333335,,32.005833333333335
517,2017-10-27,131.01791666666665,,131.01791666666665
517,2017-10-28,117.71791666666667,,117.71791666666667
517,2017-10-29,8.067083333333334,,8.067083333333334
517,2017-10-30,34.94083333333334,,34.94083333333334
517,2017-10-31,26.255,,26.255
517,2017-11-01,20.644166666666667,,20.644166666666667
517,2017-11-02,16.379583333333333,,16.379583333333333
517,2017-11-03,10.915833333333333,,10.915833333333333
517,2017-11-04,55.52166666666667,,55.52166666666667
517,2017-11-05,12.295833333333334,,12.295833333333334
517,2017-11-06,5.709583333333334,,5.709583333333334
517,2017-11-07,17.005,,17.005
517,2017-11-08,1.8779166666666667,,1.8779166666666667
517,2017-11-09,14.177916666666667,,14.177916666666667
517,2017-11-10,103.63416666666666,,103.63416666666666
517,2017-11-11,137.3325,,137.3325
517,2017-11-12,95.68,,95.68
517,2017-11-13,20.807916666666667,,20.807916666666667
517,2017-11-14,9.547083333333333,,9.547083333333333
517,2017-11-15,78.415,,78.415
517,2017-11-16,23.92833333333333,,23.92833333333333
517,2017-11-17,72.09416666666667,,72.09416666666667
517,2017-11-18,16.31375,,16.31375
517,2017-11-19,25.282083333333333,,25.282083333333333
517,2017-11-20,45.99625,,45.99625
517,2017-11-21,98.18833333333333,,98.18833333333333
517,2017-11-22,14.135833333333332,,14.135833333333332
517,2017-11-23,58.23041666666666,,58.23041666666666
517,2017-11-24,84.57916666666667,,84.57916666666667
517,2017-11-25,50.61083333333334,,50.61083333333334
517,2017-11-26,18.18875,,18.18875
517,2017-11-27,35.36333333333334,,35.36333333333334
517,2017-11-28,101.78625,,101.78625
517,2017-11-29,34.03416666666667,,34.03416666666667
517,2017-11-30,93.72250000000001,,93.72250000000001
517,2017-12-01,19.999583333333334,,19.999583333333334
517,2017-12-02,25.227083333333336,,25.227083333333336
517,2017-12-03,48.837916666666665,,48.837916666666665
517,2017-12-04,34.92875,,34.92875
517,2017-12-05,0.10208333333333335,,0.10208333333333335
517,2017-12-06,0.0,,0.0
517,2017-12-07,4.4904166666666665,,4.4904166666666665
517,2017-12-08,42.37208333333333,,42.37208333333333
517,2017-12-09,17.198333333333334,,17.198333333333334
517,2017-12-10,17.7425,,17.7425
517,2017-12-11,55.124583333333334,,55.124583333333334
517,2017-12-12,1.06125,,1.06125
517,2017-12-13,34.162083333333335,,34.162083333333335
517,2017-12-14,31.58458333333333,,31.58458333333333
517,2017-12-15,20.517083333333336,,20.517083333333336
517,2017-12-16,10.759166666666667,,10.759166666666667
517,2017-12-17,29.63,,29.63
517,2017-12-18,3.1804166666666664,,3.1804166666666664
517,2017-12-19,25.21875,,25.21875
517,2017-12-20,52.97208333333333,,52.97208333333333
517,2017-12-21,97.59458333333333,,97.59458333333333
517,2017-12-22,0.0,,0.0
517,2017-12-23,2.2904166666666668,,2.2904166666666668
517,2017-12-24,15.707500000000001,,15.707500000000001
517,2017-12-25,25.140416666666667,,25.140416666666667
517,2017-12-26,93.38541666666667,,93.38541666666667
517,2017-12-27,80.52708333333334,,80.52708333333334
517,2017-12-28,100.83208333333333,,100.83208333333333
517,2017-12-29,74.39916666666666,,74.39916666666666
517,2017-12-30,6.2175,,6.2175
517,2017-12-31,20.569583333333334,,20.569583333333334
517,2018-01-01,70.67666666666666,,70.67666666666666
517,2018-01-02,21.97583333333333,,21.97583333333333
517,2018-01-03,92.83625,,92.83625
517,2018-01-04,1.6675000000000002,,1.6675000000000002
517,2018-01-05,50.526250000000005,,50.526250000000005
517,2018-01-06,77.44416666666667,,77.44416666666667
517,2018-01-07,89.02583333333332,,89.02583333333332
517,2018-01-08,0.69,,0.69
517,2018-01-09,5.422083333333333,,5.422083333333333
517,2018-01-10,91.03375,,91.03375
517,2018-01-11,36.53125,,36.53125
517,2018-01-12,16.6725,,16.6725
517,2018-01-13,16.688333333333333,,16.688333333333333
517,2018-01-14,32.615,,32.615
517,2018-01-15,34.655,,34.655
517,2018-01-16,2.0625,,2.0625
517,2018-01-17,0.05958333333333333,,0.05958333333333333
517,2018-01-18,1.0275,,1.0275
517,2018-01-19,0.38083333333333336,,0.38083333333333336
517,2018-01-20,52.93416666666667,,52.93416666666667
517,2018-01-21,26.584999999999997,,26.584999999999997
517,2018-01-22,13.809166666666668,,13.809166666666668
517,2018-01-23,12.870416666666666,,12.870416666666666
517,2018-01-24,14.027083333333332,,14.027083333333332
517,2018-01-25,48.43541666666667,,48.43541666666667
517,2018-01-26,129.68125,,129.68125
517,2018-01-27,88.29958333333333,,88.29958333333333
517,2018-01-28,80.08125,,80.08125
517,2018-01-29,78.85625,,78.85625
517,2018-01-30,46.13333333333333,,46.13333333333333
517,2018-01-31,95.45541666666666,,95.45541666666666
517,2018-02-01,9.977083333333333,,9.977083333333333
517,2018-02-02,82.64166666666667,,82.64166666666667
517,2018-02-03,105.76916666666666,,105.76916666666666
517,2018-02-04,4.44125,,4.44125
517,2018-02-05,90.36,,90.36
517,2018-02-06,73.9025,,73.9025
517,2018-02-07,1.27875,,1.27875
517,2018-02-08,17.598333333333333,,17.598333333333333
517,2018-02-09,9.581249999999999,,9.581249999999999
517,2018-02-10,3.5404166666666668,,3.5404166666666668
517,2018-02-11,12.044166666666667,,12.044166666666667
517,2018-02-12,82.58749999999999,,82.58749999999999
517,2018-02-13,141.54541666666668,,141.54541666666668
517,2018-02-14,69.99,,69.99
517,2018-02-15,73.46041666666666,,73.46041666666666
517,2018-02-16,24.075833333333335,,24.075833333333335
517,2018-02-17,105.72958333333334,,105.72958333333334
517,2018-02-18,6.622916666666666,,6.622916666666666
517,2018-02-19,64.245,,64.245
517,2018-02-20,78.86708333333333,,78.86708333333333
517,2018-02-21,82.76791666666666,,82.76791666666666
517,2018-02-22,6.046250000000001,,6.046250000000001
517,2018-02-23,1.2316666666666667,,1.2316666666666667
517,2018-02-24,55.67124999999999,,55.67124999999999
517,2018-02-25,8.962083333333334,,8.962083333333334
517,2018-02-26,113.46958333333333,,113.46958333333333
517,2018-02-27,168.70624999999998,,168.70624999999998
517,2018-02-28,140.25458333333333,,140.25458333333333
517,2018-03-01,104.98458333333333,,104.98458333333333
517,2018-03-02,0.0,,0.0
517,2018-03-03,47.632083333333334,,47.632083333333334
517,2018-03-04,66.16,,66.16
517,2018-03-05,73.36083333333333,,73.36083333333333
517,2018-03-06,165.35999999999999,,165.35999999999999
517,2018-03-07,5.847083333333334,,5.847083333333334
517,2018-03-08,1.7383333333333333,,1.7383333333333333
517,2018-03-09,49.912083333333335,,49.912083333333335
517,2018-03-10,109.27583333333332,,109.27583333333332
517,2018-03-11,94.63,,94.63
517,2018-03-12,94.02875,,94.02875
517,2018-03-13,7.245416666666666,,7.245416666666666
517,2018-03-14,25.129583333333333,,25.129583333333333
517,2018-03-15,109.25083333333333,,109.25083333333333
517,2018-03-16,140.215,,140.215
517,2018-03-17,149.71833333333333,,149.71833333333333
517,2018-03-18,190.2175,,190.2175
517,2018-03-19,191.53833333333333,,191.53833333333333
517,2018-03-20,166.40625,,166.40625
517,2018-03-21,112.24374999999999,,112.24374999999999
517,2018-03-22,152.76416666666668,,152.76416666666668
517,2018-03-23,132.4075,,132.4075
517,2018-03-24,183.11833333333334,,183.11833333333334
517,2018-03-25,122.60541666666667,,122.60541666666667
517,2018-03-26,193.2904166666667,,193.2904166666667
517,2018-03-27,105.34375,,105.34375
517,2018-03-28,69.14041666666667,,69.14041666666667
517,2018-03-29,23.90625,,23.90625
517,2018-03-30,42.9075,,42.9075
517,2018-03-31,172.85708333333332,,172.85708333333332
517,2018-04-01,126.69375000000001,,126.69375000000001
517,2018-04-02,161.80333333333334,,161.80333333333334
517,2018-04-03,39.2275,,39.2275
517,2018-04-04,55.40375,,55.40375
517,2018-04-05,166.9575,,166.9575
517,2018-04-06,30.239583333333332,,30.239583333333332
517,2018-04-07,130.91416666666666,,130.91416666666666
517,2018-04-08,109.40499999999999,,109.40499999999999
517,2018-04-09,183.27083333333334,,183.27083333333334
517,2018-04-10,123.43083333333334,,123.43083333333334
517,2018-04-11,107.22666666666667,,107.22666666666667
517,2018-04-12,66.85833333333333,,66.85833333333333
517,2018-04-13,59.48041666666666,,59.48041666666666
517,2018-04-14,77.19125,,77.19125
517,2018-04-15,22.449166666666667,,22.449166666666667
517,2018-04-16,17.079166666666666,,17.079166666666666
517,2018-04-17,56.8125,,56.8125
517,2018-04-18,37.14041666666667,,37.14041666666667
517,2018-04-19,51.94833333333333,,51.94833333333333
517,2018-04-20,97.86166666666666,,97.86166666666666
517,2018-04-21,203.0675,,203.0675
517,2018-04-22,203.03916666666666,,203.03916666666666
517,2018-04-23,201.42583333333334,,201.42583333333334
517,2018-04-24,186.56125,,186.56125
517,2018-04-25,26.37125,,26.37125
517,2018-04-26,51.685,,51.685
517,2018-04-27,40.23708333333334,,40.23708333333334
517,2018-04-28,97.46458333333334,,97.46458333333334
517,2018-04-29,36.40875,,36.40875
517,2018-04-30,49.27583333333333,,49.27583333333333
517,2018-05-01,139.08458333333334,,139.08458333333334
517,2018-05-02,181.67083333333335,,181.67083333333335
517,2018-05-03,104.74458333333332,,104.74458333333332
517,2018-05-04,81.92708333333333,,81.92708333333333
517,2018-05-05,186.95708333333334,,186.95708333333334
517,2018-05-06,65.345,,65.345
517,2018-05-07,128.89083333333335,,128.89083333333335
517,2018-05-08,199.52083333333334,,199.52083333333334
517,2018-05-09,194.88291666666666,,194.88291666666666
517,2018-05-10,73.05875,,73.05875
517,2018-05-11,187.98708333333332,,187.98708333333332
517,2018-05-12,33.50541666666667,,33.50541666666667
517,2018-05-13,187.40374999999997,,187.40374999999997
517,2018-05-14,133.07916666666668,,133.07916666666668
517,2018-05-15,92.90875,,92.90875
517,2018-05-16,160.8725,,160.8725
517,2018-05-17,167.01041666666666,,167.01041666666666
517,2018-05-18,194.0533333333333,,194.0533333333333
517,2018-05-19,35.46083333333333,,35.46083333333333
517,2018-05-20,94.82166666666666,,94.82166666666666
517,2018-05-21,188.38833333333332,,188.38833333333332
517,2018-05-22,30.118750000000002,,30.118750000000002
517,2018-05-23,171.95333333333335,,171.95333333333335
517,2018-05-24,200.84333333333333,,200.84333333333333
517,2018-05-25,189.82041666666666,,189.82041666666666
517,2018-05-26,109.0575,,109.0575
517,2018-05-27,35.57666666666667,,35.57666666666667
517,2018-05-28,96.13666666666667,,96.13666666666667
517,2018-05-29,186.59375,,186.59375
517,2018-05-30,179.50375,,179.50375
517,2018-05-31,86.67708333333333,,86.67708333333333
517,2018-06-01,141.98458333333335,,141.98458333333335
517,2018-06-02,86.41541666666666,,86.41541666666666
517,2018-06-03,77.22916666666667,,77.22916666666667
517,2018-06-04,60.520833333333336,,60.520833333333336
517,2018-06-05,52.64666666666667,,52.64666666666667
517,2018-06-06,99.66666666666667,,99.66666666666667
517,2018-06-07,148.85291666666666,,148.85291666666666
517,2018-06-08,185.45208333333335,,185.45208333333335
517,2018-06-09,162.03125,,162.03125
517,2018-06-10,193.1654166666667,,193.1654166666667
517,2018-06-11,204.38166666666666,,204.38166666666666
517,2018-06-12,186.69125,,186.69125
517,2018-06-13,53.10916666666666,,53.10916666666666
517,2018-06-14,136.685,,136.685
517,2018-06-15,142.4375,,142.4375
517,2018-06-16,169.60416666666666,,169.60416666666666
517,2018-06-17,192.32291666666666,,192.32291666666666
517,2018-06-18,126.56375000000001,,126.56375000000001
517,2018-06-19,205.52333333333334,,205.52333333333334
517,2018-06-20,140.46125,,140.46125
517,2018-06-21,182.86208333333332,,182.86208333333332
517,2018-06-22,183.54708333333335,,183.54708333333335
517,2018-06-23,39.98416666666667,,39.98416666666667
517,2018-06-24,111.76833333333333,,111.76833333333333
517,2018-06-25,199.39291666666668,,199.39291666666668
517,2018-06-26,200.05166666666665,,200.05166666666665
517,2018-06-27,45.78583333333333,,45.78583333333333
517,2018-06-28,86.4975,,86.4975
517,2018-06-29,197.85708333333332,,197.85708333333332
517,2018-06-30,184.865,,184.865
517,2018-07-01,184.67166666666665,,184.67166666666665
517,2018-07-02,177.30208333333334,,177.30208333333334
517,2018-07-03,178.66416666666666,,178.66416666666666
517,2018-07-04,190.13541666666666,,190.13541666666666
517,2018-07-05,163.77083333333334,,163.77083333333334
517,2018-07-06,156.74458333333334,,156.74458333333334
517,2018-07-07,179.26041666666666,,179.26041666666666
517,2018-07-08,196.64833333333334,,196.64833333333334
517,2018-07-09,197.02625,,197.02625
517,2018-07-10,168.86416666666665,,168.86416666666665
517,2018-07-11,187.22625000000002,,187.22625000000002
517,2018-07-12,163.35958333333335,,163.35958333333335
517,2018-07-13,183.76541666666665,,183.76541666666665
517,2018-07-14,104.08875,,104.08875
517,2018-07-15,179.52374999999998,,179.52374999999998
517,2018-07-16,178.71583333333334,,178.71583333333334
517,2018-07-17,77.13541666666667,,77.13541666666667
517,2018-07-18,188.39166666666665,,188.39166666666665
517,2018-07-19,198.08375,,198.08375
517,2018-07-20,195.02874999999997,,195.02874999999997
517,2018-07-21,185.6725,,185.6725
517,2018-07-22,79.43958333333333,,79.43958333333333
517,2018-07-23,66.22916666666667,,66.22916666666667
517,2018-07-24,74.82833333333333,,74.82833333333333
517,2018-07-25,63.567499999999995,,63.567499999999995
517,2018-07-26,129.94291666666666,,129.94291666666666
517,2018-07-27,138.27875,,138.27875
517,2018-07-28,149.05208333333334,,149.05208333333334
517,2018-07-29,155.22708333333333,,155.22708333333333
517,2018-07-30,138.08875,,138.08875
517,2018-07-31,150.38791666666665,,150.38791666666665
517,2018-08-01,95.28375,,95.28375
517,2018-08-02,89.91375,,89.91375
517,2018-08-03,51.030833333333334,,51.030833333333334
517,2018-08-04,170.81500000000003,,170.81500000000003
517,2018-08-05,180.25291666666666,,180.25291666666666
517,2018-08-06,173.12249999999997,,173.12249999999997
517,2018-08-07,118.92458333333333,,118.92458333333333
517,2018-08-08,121.61166666666666,,121.61166666666666
517,2018-08-09,171.96875,,171.96875
517,2018-08-10,111.05458333333333,,111.05458333333333
517,2018-08-11,54.28125,,54.28125
517,2018-08-12,81.77583333333332,,81.77583333333332
517,2018-08-13,80.56,,80.56
517,2018-08-14,103.29916666666666,,103.29916666666666
517,2018-08-15,167.36166666666665,,167.36166666666665
517,2018-08-16,154.83083333333335,,154.83083333333335
517,2018-08-17,70.8225,,70.8225
517,2018-08-18,92.65916666666668,,92.65916666666668
517,2018-08-19,151.55458333333334,,151.55458333333334
517,2018-08-20,157.58333333333334,,157.58333333333334
517,2018-08-21,98.08041666666666,,98.08041666666666
517,2018-08-22,122.47666666666667,,122.47666666666667
517,2018-08-23,177.14583333333334,,177.14583333333334
517,2018-08-24,176.6875,,176.6875
517,2018-08-25,147.56791666666666,,147.56791666666666
517,2018-08-26,93.27583333333332,,93.27583333333332
517,2018-08-27,124.52083333333333,,124.52083333333333
517,2018-08-28,144.3825,,144.3825
517,2018-08-29,159.29416666666665,,159.29416666666665
517,2018-08-30,138.74458333333334,,138.74458333333334
517,2018-08-31,46.541666666666664,,46.541666666666664
517,2018-09-01,91.94541666666667,,91.94541666666667
517,2018-09-02,81.39833333333333,,81.39833333333333
517,2018-09-03,131.06833333333333,,131.06833333333333
517,2018-09-04,157.04708333333335,,157.04708333333335
517,2018-09-05,164.32041666666666,,164.32041666666666
517,2018-09-06,135.75791666666666,,135.75791666666666
517,2018-09-07,116.1225,,116.1225
517,2018-09-08,81.11708333333333,,81.11708333333333
517,2018-09-09,74.885,,74.885
517,2018-09-10,18.332916666666666,,18.332916666666666
517,2018-09-11,68.92125,,68.92125
517,2018-09-12,63.192499999999995,,63.192499999999995
517,2018-09-13,124.0,,124.0
517,2018-09-14,86.42958333333333,,86.42958333333333
517,2018-09-15,117.26041666666667,,117.26041666666667
517,2018-09-16,155.4325,,155.4325
517,2018-09-17,126.0625,,126.0625
517,2018-09-18,119.3775,,119.3775
517,2018-09-19,69.32791666666667,,69.32791666666667
517,2018-09-20,71.815,,71.815
517,2018-09-21,13.971666666666666,,13.971666666666666
517,2018-09-22,137.10916666666665,,137.10916666666665
517,2018-09-23,156.52583333333334,,156.52583333333334
517,2018-09-24,112.6175,,112.6175
517,2018-09-25,14.3125,,14.3125
517,2018-09-26,22.984583333333333,,22.984583333333333
517,2018-09-27,118.39041666666667,,118.39041666666667
517,2018-09-28,65.75750000000001,,65.75750000000001
517,2018-09-29,133.86708333333334,,133.86708333333334
517,2018-09-30,89.41666666666667,,89.41666666666667
517,2018-10-01,9.661666666666667,,9.661666666666667
517,2018-10-02,15.97125,,15.97125
517,2018-10-03,88.31,,88.31
517,2018-10-04,41.794583333333335,,41.794583333333335
517,2018-10-05,167.40083333333334,,167.40083333333334
517,2018-10-06,39.19,,39.19
517,2018-10-07,36.05958333333333,,36.05958333333333
517,2018-10-08,25.155833333333334,,25.155833333333334
517,2018-10-09,100.38041666666668,,100.38041666666668
517,2018-10-10,140.03916666666666,,140.03916666666666
517,2018-10-11,21.987083333333334,,21.987083333333334
517,2018-10-12,65.30458333333333,,65.30458333333333
517,2018-10-13,69.78125,,69.78125
517,2018-10-14,124.79416666666667,,124.79416666666667
517,2018-10-15,9.882916666666667,,9.882916666666667
517,2018-10-16,118.15625,,118.15625
517,2018-10-17,63.572916666666664,,63.572916666666664
517,2018-10-18,164.07041666666666,,164.07041666666666
517,2018-10-19,145.15875,,145.15875
517,2018-10-20,107.43458333333332,,107.43458333333332
517,2018-10-21,109.93208333333332,,109.93208333333332
517,2018-10-22,43.28125,,43.28125
517,2018-10-23,79.14083333333333,,79.14083333333333
517,2018-10-24,68.07291666666667,,68.07291666666667
517,2018-10-25,42.82541666666666,,42.82541666666666
517,2018-10-26,100.36208333333333,,100.36208333333333
517,2018-10-27,6.91125,,6.91125
517,2018-10-28,39.28666666666667,,39.28666666666667
517,2018-10-29,31.630416666666665,,31.630416666666665
517,2018-10-30,98.55708333333332,,98.55708333333332
517,2018-10-31,41.34875,,41.34875
517,2018-11-01,7.325833333333333,,7.325833333333333
517,2018-11-02,13.97375,,13.97375
517,2018-11-03,48.47625,,48.47625
517,2018-11-04,104.9375,,104.9375
517,2018-11-05,11.15375,,11.15375
517,2018-11-06,8.054583333333333,,8.054583333333333
517,2018-11-07,106.6825,,106.6825
517,2018-11-08,44.635416666666664,,44.635416666666664
517,2018-11-09,14.541666666666666,,14.541666666666666
517,2018-11-10,55.32,,55.32
517,2018-11-11,111.76333333333334,,111.76333333333334
517,2018-11-12,98.32791666666667,,98.32791666666667
517,2018-11-13,0.6695833333333333,,0.6695833333333333
517,2018-11-14,36.28666666666667,,36.28666666666667
517,2018-11-15,20.489583333333332,,20.489583333333332
517,2018-11-16,0.16708333333333333,,0.16708333333333333
517,2018-11-17,24.752916666666668,,24.752916666666668
517,2018-11-18,36.26833333333334,,36.26833333333334
517,2018-11-19,17.997083333333332,,17.997083333333332
517,2018-11-20,11.84625,,11.84625
517,2018-11-21,19.46875,,19.46875
517,2018-11-22,107.63041666666668,,107.63041666666668
517,2018-11-23,111.88791666666667,,111.88791666666667
517,2018-11-24,32.3125,,32.3125
517,2018-11-25,15.13,,15.13
517,2018-11-26,6.255,,6.255
517,2018-11-27,5.322916666666667,,5.322916666666667
517,2018-11-28,12.327916666666667,,12.327916666666667
517,2018-11-29,21.940416666666668,,21.940416666666668
517,2018-11-30,19.2475,,19.2475
517,2018-12-01,72.53416666666666,,72.53416666666666
517,2018-12-02,4.302083333333333,,4.302083333333333
517,2018-12-03,33.09625,,33.09625
517,2018-12-04,101.96083333333333,,101.96083333333333
517,2018-12-05,86.245,,86.245
517,2018-12-06,35.52583333333333,,35.52583333333333
517,2018-12-07,78.44291666666668,,78.44291666666668
517,2018-12-08,39.760416666666664,,39.760416666666664
517,2018-12-09,86.84916666666668,,86.84916666666668
517,2018-12-10,72.56791666666668,,72.56791666666668
517,2018-12-11,19.197916666666668,,19.197916666666668
517,2018-12-12,0.0,,0.0
517,2018-12-13,0.0,,0.0
517,2018-12-14,0.0,,0.0
517,2018-12-15,0.0,,0.0
517,2018-12-16,0.0,,0.0
517,2018-12-17,0.0,,0.0
517,2018-12-18,0.0,,0.0
517,2018-12-19,0.0,,0.0
517,2018-12-20,0.0,,0.0
517,2018-12-21,0.0,,0.0
517,2018-12-22,0.0,,0.0
517,2018-12-23,0.0,,0.0
517,2018-12-24,0.0,,0.0
517,2018-12-25,0.0,,0.0
517,2018-12-26,0.0,,0.0
517,2018-12-27,0.0,,0.0
517,2018-12-28,0.0,,0.0
517,2018-12-29,0.0,,0.0
517,2018-12-30,0.0,,0.0
517,2018-12-31,0.0,,0.0
517,2019-01-01,0.0,,0.0
517,2019-01-02,0.0,,0.0
517,2019-01-03,0.007916666666666667,,0.007916666666666667
517,2019-01-04,63.99666666666667,,63.99666666666667
517,2019-01-05,27.859166666666667,,27.859166666666667
517,2019-01-06,51.72875,,51.72875
517,2019-01-07,40.94541666666667,,40.94541666666667
517,2019-01-08,37.357083333333335,,37.357083333333335
517,2019-01-09,4.359583333333333,,4.359583333333333
517,2019-01-10,28.365,,28.365
517,2019-01-11,49.002916666666664,,49.002916666666664
517,2019-01-12,60.04958333333334,,60.04958333333334
517,2019-01-13,88.60416666666667,,88.60416666666667
517,2019-01-14,107.81,,107.81
517,2019-01-15,19.177083333333332,,19.177083333333332
517,2019-01-16,17.036666666666665,,17.036666666666665
517,2019-01-17,90.49208333333333,,90.49208333333333
517,2019-01-18,4.9375,,4.9375
517,2019-01-19,5.59375,,5.59375
517,2019-01-20,0.0025,,0.0025
517,2019-01-21,0.6308333333333334,,0.6308333333333334
517,2019-01-22,19.208333333333332,,19.208333333333332
517,2019-01-23,2.8095833333333338,,2.8095833333333338
517,2019-01-24,13.179166666666667,,13.179166666666667
517,2019-01-25,71.38583333333334,,71.38583333333334
517,2019-01-26,76.07541666666667,,76.07541666666667
517,2019-01-27,5.267916666666667,,5.267916666666667
517,2019-01-28,91.435,,91.435
517,2019-01-29,2.827916666666667,,2.827916666666667
517,2019-01-30,4.327916666666667,,4.327916666666667